DW0088 Weather Reports


Display with metric or nautical units.
time (UTC)temp
F
wind
direction
speed
MPH
gust
MPH
rain 1hr
in
rain 24hr
in
rain mn
in
humidity
%
barometer
mb
20260506034943 48 342 7.0 12.0 0.00 0.12 0.04 98 1006.6
20260506033944 48 353 7.0 11.0 0.00 0.13 0.04 98 1006.6
20260506032944 48 342 7.0 11.0 0.00 0.13 0.04 98 1006.7
20260506031944 48 345 7.0 12.0 0.01 0.13 0.04 98 1006.7
20260506030943 48 357 6.0 11.0 0.01 0.13 0.04 97 1006.8
20260506025944 48 329 7.0 13.0 0.01 0.13 0.04 97 1006.9
20260506024944 48 356 7.0 10.0 0.02 0.13 0.04 97 1006.9
20260506023944 48 349 7.0 11.0 0.02 0.13 0.04 97 1007.0
20260506022944 48 355 6.0 10.0 0.02 0.13 0.03 97 1007.1
20260506020945 48 352 7.0 11.0 0.02 0.13 0.03 96 1007.1
20260506015944 48 339 7.0 10.0 0.02 0.13 0.03 96 1007.1
20260506014944 49 350 6.0 9.0 0.02 0.12 0.02 95 1007.1
20260506011944 49 6 6.0 9.0 0.01 0.10 0.01 93 1007.1
20260506010944 49 8 5.0 9.0 0.01 0.10 0.01 92 1007.2
20260506005944 49 8 6.0 10.0 0.01 0.11 0.01 92 1007.4
20260506004944 49 18 6.0 16.0 0.00 0.11 0.00 91 1007.4
20260506002944 50 11 6.0 10.0 0.00 0.11 0.00 90 1007.6
20260506001944 50 17 6.0 11.0 0.00 0.12 0.00 90 1007.6
20260506000945 50 6 7.0 12.0 0.00 0.13 0.00 91 1007.7
20260505235945 50 13 6.0 11.0 0.00 0.13 0.00 91 1007.7
20260505234946 50 11 7.0 12.0 0.00 0.13 0.00 91 1007.7
20260505233945 50 11 6.0 11.0 0.00 0.13 0.00 91 1007.8
20260505232945 50 13 7.0 11.0 0.00 0.15 0.00 91 1007.8
20260505225945 50 4 8.0 15.0 0.00 0.18 0.00 91 1008.1
20260505223945 50 1 7.0 13.0 0.00 0.19 0.00 92 1008.1
20260505221945 51 13 6.0 12.0 0.00 0.20 0.00 93 1008.2
20260505220945 51 356 5.0 10.0 0.00 0.20 0.00 93 1008.3
20260505215950 51 4 5.0 8.0 0.00 0.20 0.00 93 1008.3
20260505214945 51 18 6.0 10.0 0.00 0.20 0.20 93 1008.3
20260505213944 51 21 7.0 12.0 0.00 0.20 0.20 92 1008.4
20260505212945 51 19 6.0 13.0 0.00 0.20 0.20 93 1008.5
20260505211945 51 17 4.0 9.0 0.00 0.20 0.20 93 1008.5
20260505205945 51 21 5.0 8.0 0.00 0.20 0.20 93 1008.6
20260505204944 51 27 5.0 8.0 0.00 0.20 0.20 93 1008.6
20260505203945 51 21 5.0 8.0 0.00 0.20 0.20 93 1008.6
20260505202945 51 18 5.0 10.0 0.00 0.20 0.20 93 1008.6
20260505201944 52 18 6.0 11.0 0.00 0.21 0.20 92 1008.6
20260505200945 52 25 7.0 11.0 0.00 0.22 0.20 91 1008.5
20260505195946 52 35 7.0 12.0 0.00 0.24 0.20 91 1008.4
20260505194944 52 30 4.0 10.0 0.00 0.29 0.20 92 1008.4
20260505193946 52 31 5.0 9.0 0.00 0.31 0.20 92 1008.2
20260505192946 52 37 5.0 8.0 0.00 0.31 0.20 92 1008.1
20260505191945 52 29 3.0 6.0 0.00 0.31 0.20 92 1008.1
20260505190945 52 28 3.0 5.0 0.00 0.31 0.20 92 1008.1
20260505185945 52 25 3.0 6.0 0.00 0.31 0.20 92 1008.1
20260505184945 52 34 4.0 7.0 0.00 0.31 0.20 92 1008.1
20260505182945 52 30 4.0 9.0 0.00 0.31 0.20 92 1008.1
20260505180945 52 22 5.0 8.0 0.00 0.31 0.20 92 1008.0
20260505175947 52 12 4.0 7.0 0.00 0.31 0.20 93 1008.0
20260505174945 53 15 4.0 7.0 0.00 0.31 0.20 93 1008.0
20260505172945 53 19 4.0 7.0 0.00 0.31 0.20 93 1008.1
20260505171947 53 24 4.0 7.0 0.00 0.31 0.20 93 1008.1
20260505170945 53 28 5.0 9.0 0.00 0.31 0.20 93 1008.2
20260505165946 53 29 5.0 10.0 0.00 0.31 0.20 92 1008.3
20260505164945 53 34 6.0 9.0 0.00 0.31 0.20 93 1008.3
20260505163947 53 32 6.0 9.0 0.00 0.31 0.20 93 1008.4
20260505162945 53 32 5.0 8.0 0.00 0.31 0.20 93 1008.3
20260505161946 53 28 6.0 10.0 0.00 0.31 0.20 93 1008.3
20260505151947 53 16 5.0 9.0 0.00 0.31 0.20 93 1008.7
20260505150948 53 19 6.0 10.0 0.00 0.31 0.20 92 1008.6
20260505124946 51 24 5.0 9.0 0.00 0.31 0.20 97 1009.5
20260505123945 51 22 5.0 9.0 0.00 0.31 0.20 98 1009.6
20260505121946 51 18 5.0 9.0 0.00 0.31 0.20 98 1009.6
20260505120945 50 21 5.0 10.0 0.00 0.31 0.20 98 1009.7
20260505115948 50 9 5.0 9.0 0.00 0.31 0.20 98 1009.8
20260505114946 50 35 6.0 9.0 0.00 0.31 0.20 98 1009.8
20260505113946 50 24 5.0 10.0 0.00 0.31 0.20 98 1009.8
20260505111946 50 26 6.0 11.0 0.00 0.31 0.20 98 1009.9
20260505110947 50 20 4.0 8.0 0.00 0.31 0.20 98 1009.9
20260505100947 49 36 7.0 12.0 0.01 0.31 0.20 98 1010.2
20260505095946 49 48 7.0 13.0 0.01 0.31 0.20 99 1010.2
20260505094946 49 34 6.0 10.0 0.01 0.31 0.20 98 1010.2
20260505092946 49 32 6.0 12.0 0.02 0.31 0.20 98 1010.2
20260505090946 49 31 6.0 9.0 0.01 0.31 0.19 99 1010.2
20260505085947 49 27 5.0 11.0 0.01 0.31 0.19 98 1010.2
20260505084947 49 31 6.0 9.0 0.01 0.31 0.19 98 1010.2
20260505083947 49 29 7.0 13.0 0.00 0.30 0.18 98 1010.2
20260505081946 49 32 5.0 8.0 0.01 0.30 0.18 98 1010.1
20260505080946 49 39 7.0 12.0 0.01 0.30 0.18 98 1010.1
20260505075947 49 35 7.0 11.0 0.01 0.30 0.18 98 1010.2
20260505074946 49 32 6.0 10.0 0.01 0.30 0.18 98 1010.2
20260505073947 49 29 6.0 12.0 0.01 0.30 0.18 99 1010.2
20260505071946 49 26 7.0 16.0 0.00 0.29 0.17 99 1010.2
20260505070947 49 30 7.0 13.0 0.00 0.29 0.17 99 1010.2
20260505065947 49 21 7.0 13.0 0.00 0.29 0.17 99 1010.1
20260505064947 49 11 7.0 13.0 0.00 0.29 0.17 99 1010.1
20260505063947 50 20 7.0 11.0 0.00 0.29 0.17 99 1010.2
20260505062947 50 21 7.0 13.0 0.00 0.29 0.17 99 1010.2
20260505061947 50 19 5.0 12.0 0.01 0.29 0.17 99 1010.2
20260505060947 50 35 6.0 9.0 0.01 0.29 0.17 99 1010.2
20260505055947 50 35 8.0 13.0 0.02 0.29 0.17 99 1010.1
20260505054947 51 34 6.0 12.0 0.02 0.29 0.17 99 1010.1
20260505053946 50 28 6.0 11.0 0.02 0.29 0.17 99 1010.1
20260505052947 50 20 6.0 10.0 0.03 0.29 0.17 99 1010.0
20260505051947 51 21 6.0 11.0 0.03 0.28 0.17 99 1010.0
20260505050948 51 4 5.0 9.0 0.03 0.28 0.16 99 1009.9
20260505040947 51 28 7.0 13.0 0.02 0.24 0.13 99 1009.7